DLH9LP LPMA-EDDF

Flight info

Callsign DLH9LP
Flight time 3h 37m
Altitude 36000
Route DEGUN DCT DEMOS DCT LOTEE DCT AZFIC DCT ERIGA DCT MOKOR UN741 NTS DCT GONEK DCT TABOV DCT TSU DCT OQQAL DCT RANUX/N0430F370 DCT VALEK DCT LUTAX DCT DIK T856 NIVNU/N0355F230 T847 IMCOM IMCOM1A
Aircraft A32N/M-SDE2E3FGIJ1LORWXYZ/HB1

Departure

Time 2026-04-16 07:03
Airport Cristiano Ronaldo International Airport (LPMA)

Arrival

Time 2026-04-16 10:41
Airport Frankfurt Main Airport (EDDF)
Time Latitude Longitude Altitude Speed Heading
2026-04-16 06:24 32.69337 -16.77697 175 ft 0 kts 137°
2026-04-16 06:30 32.69338 -16.77697 175 ft 0 kts 137°
2026-04-16 06:34 32.69338 -16.77698 174 ft 0 kts 137°
2026-04-16 06:46 32.69339 -16.77698 174 ft 0 kts 137°
2026-04-16 06:49 32.69339 -16.77699 174 ft 0 kts 137°
2026-04-16 06:51 32.69342 -16.77702 173 ft 4 kts 138°
2026-04-16 06:51 32.69363 -16.77720 171 ft 4 kts 160°
2026-04-16 06:52 32.69389 -16.77724 171 ft 4 kts 196°
2026-04-16 06:52 32.69404 -16.77715 171 ft 0 kts 225°
2026-04-16 06:53 32.69404 -16.77716 171 ft 0 kts 225°
2026-04-16 06:55 32.69404 -16.77715 171 ft 0 kts 225°
2026-04-16 06:56 32.69404 -16.77716 171 ft 1 kts 225°
2026-04-16 06:56 32.69393 -16.77729 171 ft 4 kts 225°
2026-04-16 06:57 32.69370 -16.77756 171 ft 3 kts 225°
2026-04-16 06:57 32.69327 -16.77809 171 ft 13 kts 226°
2026-04-16 06:57 32.69293 -16.77869 170 ft 0 kts 258°
2026-04-16 06:57 32.69290 -16.77883 169 ft 3 kts 257°
2026-04-16 06:58 32.69289 -16.77924 167 ft 7 kts 269°
2026-04-16 06:58 32.69286 -16.77999 165 ft 9 kts 261°
2026-04-16 06:58 32.69259 -16.78061 164 ft 9 kts 227°
2026-04-16 06:58 32.69213 -16.78112 163 ft 9 kts 227°
2026-04-16 06:59 32.69168 -16.78168 162 ft 9 kts 225°
2026-04-16 06:59 32.69126 -16.78218 163 ft 8 kts 224°
2026-04-16 06:59 32.69085 -16.78266 163 ft 10 kts 225°
2026-04-16 06:59 32.69034 -16.78326 162 ft 11 kts 225°
2026-04-16 07:00 32.68975 -16.78396 160 ft 13 kts 224°
2026-04-16 07:00 32.68923 -16.78468 159 ft 10 kts 201°
2026-04-16 07:00 32.68901 -16.78424 159 ft 7 kts 54°
2026-04-16 07:01 32.68945 -16.78418 159 ft 2 kts 357°
2026-04-16 07:01 32.68957 -16.78410 159 ft 3 kts 37°
2026-04-16 07:01 32.68966 -16.78400 159 ft 0 kts 45°
2026-04-16 07:02 32.68967 -16.78398 160 ft 0 kts 45°
2026-04-16 07:02 32.68970 -16.78395 160 ft 6 kts 45°
2026-04-16 07:03 32.69136 -16.78205 163 ft 64 kts 44°
2026-04-16 07:03 32.69597 -16.77667 175 ft 120 kts 45°
2026-04-16 07:03 32.70277 -16.76876 427 ft 138 kts 40°
2026-04-16 07:03 32.70807 -16.75936 869 ft 143 kts 73°
2026-04-16 07:04 32.70841 -16.74685 1241 ft 156 kts 86°
2026-04-16 07:04 32.70821 -16.73441 1914 ft 147 kts 88°
2026-04-16 07:04 32.70815 -16.72226 2161 ft 148 kts 87°
2026-04-16 07:04 32.70837 -16.70884 2489 ft 176 kts 85°
2026-04-16 07:05 32.70899 -16.69348 2935 ft 196 kts 84°
2026-04-16 07:05 32.70960 -16.67674 3357 ft 218 kts 86°
2026-04-16 07:05 32.71003 -16.65757 3795 ft 241 kts 88°
2026-04-16 07:05 32.71042 -16.63740 4486 ft 250 kts 88°
2026-04-16 07:06 32.71081 -16.61644 4900 ft 255 kts 88°
2026-04-16 07:06 32.71119 -16.59529 5082 ft 257 kts 88°
2026-04-16 07:06 32.71158 -16.57385 5657 ft 261 kts 89°
2026-04-16 07:06 32.71198 -16.55221 6489 ft 263 kts 89°
2026-04-16 07:07 32.71285 -16.53039 7256 ft 266 kts 84°
2026-04-16 07:07 32.71743 -16.50911 7978 ft 273 kts 68°
2026-04-16 07:07 32.72777 -16.48989 8717 ft 280 kts 52°
2026-04-16 07:07 32.74101 -16.47253 9463 ft 286 kts 49°
2026-04-16 07:08 32.75515 -16.45541 10209 ft 292 kts 47°
2026-04-16 07:08 32.76969 -16.43811 10672 ft 308 kts 46°
2026-04-16 07:08 32.78538 -16.41947 10979 ft 328 kts 47°
2026-04-16 07:08 32.80201 -16.39970 11264 ft 346 kts 47°
2026-04-16 07:09 32.81945 -16.37895 11561 ft 361 kts 46°
2026-04-16 07:09 32.83722 -16.35785 12026 ft 369 kts 47°
2026-04-16 07:09 32.85554 -16.33604 12587 ft 374 kts 46°
2026-04-16 07:09 32.87405 -16.31400 13193 ft 378 kts 46°
2026-04-16 07:10 32.89281 -16.29163 13806 ft 382 kts 46°
2026-04-16 07:10 32.91150 -16.26933 14363 ft 386 kts 46°
2026-04-16 07:10 32.93064 -16.24647 14923 ft 390 kts 46°
2026-04-16 07:10 32.94988 -16.22347 15494 ft 393 kts 46°
2026-04-16 07:11 32.96927 -16.20029 16072 ft 396 kts 46°
2026-04-16 07:11 32.98887 -16.17683 16633 ft 400 kts 46°
2026-04-16 07:11 33.00838 -16.15347 17191 ft 404 kts 46°
2026-04-16 07:11 33.02830 -16.12959 17757 ft 407 kts 46°
2026-04-16 07:12 33.04840 -16.10548 18306 ft 411 kts 46°
2026-04-16 07:12 33.06870 -16.08112 18824 ft 414 kts 46°
2026-04-16 07:12 33.08218 -16.06493 19185 ft 415 kts 46°
2026-04-16 07:12 33.10258 -16.04042 19719 ft 417 kts 46°
2026-04-16 07:13 33.12981 -16.00768 20421 ft 420 kts 46°
2026-04-16 07:13 33.15046 -15.98282 20939 ft 422 kts 46°
2026-04-16 07:13 33.16418 -15.96629 21277 ft 423 kts 46°
2026-04-16 07:13 33.18499 -15.94121 21776 ft 426 kts 46°
2026-04-16 07:14 33.20594 -15.91596 22254 ft 428 kts 46°
2026-04-16 07:14 33.22703 -15.89050 22716 ft 431 kts 46°
2026-04-16 07:14 33.24794 -15.86526 23185 ft 433 kts 46°
2026-04-16 07:14 33.26918 -15.83959 23651 ft 435 kts 46°
2026-04-16 07:15 33.29057 -15.81371 24074 ft 437 kts 46°
2026-04-16 07:15 33.31200 -15.78776 24470 ft 440 kts 46°
2026-04-16 07:15 33.33355 -15.76166 24869 ft 441 kts 46°
2026-04-16 07:15 33.35522 -15.73541 25257 ft 444 kts 46°
2026-04-16 07:16 33.37692 -15.70909 25636 ft 445 kts 46°
2026-04-16 07:16 33.39864 -15.68290 26007 ft 447 kts 45°
2026-04-16 07:16 33.42239 -15.65863 26344 ft 450 kts 36°
2026-04-16 07:16 33.44895 -15.63808 26687 ft 453 kts 32°
2026-04-16 07:17 33.47636 -15.61916 27033 ft 455 kts 30°
2026-04-16 07:17 33.50393 -15.60121 27350 ft 457 kts 29°
2026-04-16 07:17 33.53214 -15.58325 27672 ft 459 kts 28°
2026-04-16 07:17 33.56056 -15.56522 27974 ft 461 kts 29°
2026-04-16 07:18 33.58895 -15.54709 28278 ft 462 kts 29°
2026-04-16 07:18 33.61700 -15.52902 28691 ft 461 kts 29°
2026-04-16 07:18 33.64521 -15.51071 29160 ft 459 kts 29°
2026-04-16 07:18 33.67332 -15.49238 29593 ft 458 kts 30°
2026-04-16 07:19 33.70095 -15.47430 30018 ft 457 kts 30°
2026-04-16 07:19 33.72885 -15.45600 30411 ft 456 kts 30°
2026-04-16 07:19 33.75668 -15.43774 30759 ft 454 kts 30°
2026-04-16 07:19 33.78449 -15.41948 31093 ft 453 kts 29°
2026-04-16 07:20 33.81186 -15.40151 31426 ft 452 kts 29°
2026-04-16 07:20 33.83955 -15.38331 31753 ft 452 kts 29°
2026-04-16 07:20 33.86713 -15.36517 32070 ft 451 kts 29°
2026-04-16 07:20 33.89469 -15.34703 32390 ft 450 kts 29°
2026-04-16 07:21 33.92177 -15.32919 32696 ft 448 kts 29°
2026-04-16 07:21 33.94922 -15.31111 33005 ft 447 kts 29°
2026-04-16 07:21 33.97658 -15.29305 33295 ft 447 kts 29°
2026-04-16 07:21 34.00391 -15.27502 33560 ft 447 kts 29°
2026-04-16 07:22 34.03119 -15.25700 33838 ft 446 kts 29°
2026-04-16 07:22 34.05812 -15.23920 34106 ft 445 kts 29°
2026-04-16 07:22 34.08533 -15.22120 34340 ft 445 kts 29°
2026-04-16 07:22 34.11250 -15.20322 34534 ft 445 kts 29°
2026-04-16 07:23 34.13975 -15.18517 34710 ft 446 kts 29°
2026-04-16 07:23 34.16691 -15.16716 34877 ft 446 kts 29°
2026-04-16 07:23 34.19387 -15.14928 35057 ft 446 kts 28°
2026-04-16 07:23 34.22116 -15.13116 35238 ft 446 kts 28°
2026-04-16 07:24 34.24859 -15.11293 35393 ft 447 kts 28°
2026-04-16 07:24 34.27558 -15.09499 35551 ft 448 kts 28°
2026-04-16 07:24 34.30294 -15.07679 35703 ft 448 kts 28°
2026-04-16 07:24 34.33045 -15.05847 35864 ft 448 kts 28°
2026-04-16 07:25 34.35748 -15.04046 36021 ft 449 kts 28°
2026-04-16 07:25 34.38491 -15.02216 36171 ft 449 kts 28°
2026-04-16 07:25 34.41240 -15.00382 36234 ft 451 kts 28°
2026-04-16 07:26 34.46712 -14.96726 36489 ft 450 kts 28°
2026-04-16 07:26 34.49465 -14.94885 36658 ft 450 kts 28°
2026-04-16 07:26 34.52220 -14.93040 36805 ft 451 kts 28°
2026-04-16 07:26 34.54965 -14.91201 36939 ft 451 kts 28°
2026-04-16 07:27 34.57717 -14.89356 37082 ft 451 kts 28°
2026-04-16 07:27 34.60439 -14.87530 37211 ft 451 kts 28°
2026-04-16 07:27 34.63193 -14.85681 37338 ft 451 kts 28°
2026-04-16 07:27 34.65947 -14.83830 37461 ft 452 kts 28°
2026-04-16 07:28 34.68679 -14.81993 37584 ft 452 kts 28°
2026-04-16 07:28 34.71442 -14.80133 37694 ft 452 kts 28°
2026-04-16 07:28 34.74208 -14.78270 37792 ft 453 kts 28°
2026-04-16 07:28 34.76968 -14.76410 37898 ft 454 kts 28°
2026-04-16 07:29 34.79709 -14.74562 37998 ft 454 kts 28°
2026-04-16 07:29 34.82477 -14.72693 38116 ft 454 kts 28°
2026-04-16 07:29 34.85247 -14.70821 38230 ft 454 kts 28°
2026-04-16 07:30 34.90773 -14.67084 38245 ft 457 kts 28°
2026-04-16 07:30 34.96312 -14.63332 38239 ft 456 kts 28°
2026-04-16 07:31 35.01853 -14.59572 38241 ft 456 kts 28°
2026-04-16 07:31 35.07382 -14.55814 38240 ft 456 kts 28°
2026-04-16 07:32 35.12953 -14.52022 38242 ft 456 kts 28°
2026-04-16 07:32 35.18469 -14.48262 38243 ft 456 kts 29°
2026-04-16 07:33 35.24025 -14.44469 38242 ft 456 kts 29°
2026-04-16 07:33 35.29549 -14.40691 38248 ft 456 kts 29°
2026-04-16 07:34 35.35099 -14.36890 38250 ft 456 kts 29°
2026-04-16 07:34 35.40647 -14.33084 38248 ft 456 kts 29°
2026-04-16 07:35 35.46170 -14.29289 38247 ft 456 kts 29°
2026-04-16 07:35 35.51689 -14.25491 38252 ft 456 kts 29°
2026-04-16 07:36 35.57229 -14.21673 38252 ft 456 kts 29°
2026-04-16 07:36 35.62741 -14.17867 38248 ft 456 kts 29°
2026-04-16 07:37 35.68268 -14.14045 38247 ft 456 kts 29°
2026-04-16 07:37 35.73824 -14.10197 38250 ft 457 kts 29°
2026-04-16 07:38 35.79371 -14.06349 38248 ft 457 kts 29°
2026-04-16 07:38 35.84884 -14.02518 38253 ft 457 kts 29°
2026-04-16 07:39 35.90436 -13.98654 38251 ft 458 kts 29°
2026-04-16 07:39 35.95989 -13.94783 38255 ft 458 kts 29°
2026-04-16 07:40 36.01518 -13.90922 38252 ft 459 kts 29°
2026-04-16 07:40 36.07093 -13.87023 38252 ft 459 kts 29°
2026-04-16 07:41 36.12633 -13.83143 38259 ft 459 kts 29°
2026-04-16 07:41 36.18206 -13.79232 38258 ft 460 kts 29°
2026-04-16 07:42 36.23750 -13.75336 38253 ft 460 kts 29°
2026-04-16 07:42 36.29331 -13.71407 38257 ft 460 kts 29°
2026-04-16 07:43 36.34874 -13.67498 38262 ft 461 kts 30°
2026-04-16 07:43 36.40474 -13.63542 38257 ft 461 kts 29°
2026-04-16 07:44 36.46016 -13.59621 38259 ft 462 kts 29°
2026-04-16 07:44 36.51622 -13.55648 38256 ft 462 kts 29°
2026-04-16 07:45 36.57192 -13.51694 38256 ft 462 kts 29°
2026-04-16 07:45 36.62754 -13.47739 38259 ft 463 kts 29°
2026-04-16 07:46 36.68357 -13.43748 38263 ft 463 kts 29°
2026-04-16 07:46 36.73932 -13.39770 38266 ft 463 kts 29°
2026-04-16 07:47 36.79546 -13.35758 38254 ft 464 kts 29°
2026-04-16 07:47 36.85161 -13.31738 38267 ft 464 kts 29°
2026-04-16 07:48 36.90748 -13.27732 38264 ft 465 kts 29°
2026-04-16 07:48 36.96333 -13.23719 38267 ft 465 kts 29°
2026-04-16 07:49 37.01960 -13.19670 38268 ft 465 kts 29°
2026-04-16 07:49 37.07573 -13.15624 38262 ft 465 kts 29°
2026-04-16 07:50 37.13159 -13.11591 38257 ft 466 kts 29°
2026-04-16 07:50 37.18786 -13.07520 38264 ft 466 kts 29°
2026-04-16 07:51 37.24383 -13.03465 38268 ft 466 kts 29°
2026-04-16 07:51 37.30017 -12.99375 38262 ft 467 kts 29°
2026-04-16 07:52 37.35614 -12.95306 38257 ft 467 kts 29°
2026-04-16 07:52 37.41247 -12.91203 38262 ft 468 kts 29°
2026-04-16 07:53 37.46884 -12.87089 38263 ft 468 kts 29°
2026-04-16 07:53 37.52529 -12.82963 38267 ft 468 kts 29°
2026-04-16 07:54 37.58139 -12.78855 38269 ft 468 kts 29°
2026-04-16 07:54 37.63783 -12.74715 38269 ft 468 kts 29°
2026-04-16 07:55 37.69391 -12.70595 38257 ft 469 kts 29°
2026-04-16 07:55 37.75055 -12.66425 38264 ft 469 kts 29°
2026-04-16 07:56 37.80655 -12.62295 38263 ft 469 kts 29°
2026-04-16 07:56 37.86298 -12.58126 38259 ft 469 kts 29°
2026-04-16 07:57 37.91932 -12.53956 38256 ft 469 kts 29°
2026-04-16 07:57 37.97578 -12.49770 38265 ft 470 kts 29°
2026-04-16 07:58 38.03220 -12.45580 38275 ft 470 kts 29°
2026-04-16 07:58 38.08831 -12.41405 38264 ft 470 kts 28°
2026-04-16 07:59 38.14471 -12.37200 38264 ft 470 kts 28°
2026-04-16 07:59 38.20113 -12.32986 38266 ft 470 kts 28°
2026-04-16 08:00 38.25747 -12.28771 38264 ft 470 kts 28°
2026-04-16 08:00 38.31346 -12.24575 38270 ft 470 kts 28°
2026-04-16 08:01 38.36983 -12.20342 38266 ft 470 kts 28°
2026-04-16 08:01 38.42618 -12.16103 38264 ft 470 kts 28°
2026-04-16 08:02 38.47336 -12.12548 38265 ft 470 kts 28°
2026-04-16 08:02 38.55765 -12.06183 38269 ft 471 kts 28°
2026-04-16 08:03 38.61407 -12.01913 38268 ft 471 kts 28°
2026-04-16 08:03 38.67047 -11.97636 38270 ft 471 kts 28°
2026-04-16 08:04 38.72679 -11.93358 38270 ft 471 kts 28°
2026-04-16 08:04 38.78316 -11.89068 38267 ft 471 kts 28°
2026-04-16 08:05 38.83957 -11.84766 38268 ft 471 kts 28°
2026-04-16 08:05 38.89554 -11.80490 38268 ft 471 kts 28°
2026-04-16 08:06 38.95200 -11.76169 38266 ft 471 kts 28°
2026-04-16 08:06 39.00850 -11.71837 38264 ft 472 kts 28°
2026-04-16 08:07 39.06458 -11.67529 38264 ft 472 kts 28°
2026-04-16 08:07 39.12095 -11.63190 38268 ft 472 kts 28°
2026-04-16 08:08 39.17743 -11.58835 38268 ft 472 kts 28°
2026-04-16 08:08 39.23347 -11.54505 38263 ft 472 kts 28°
2026-04-16 08:09 39.28977 -11.50147 38266 ft 472 kts 28°
2026-04-16 08:09 39.34626 -11.45766 38271 ft 472 kts 28°
2026-04-16 08:10 39.40230 -11.41412 38262 ft 472 kts 28°
2026-04-16 08:10 39.45859 -11.37030 38267 ft 472 kts 28°
2026-04-16 08:11 39.51509 -11.32624 38264 ft 472 kts 28°
2026-04-16 08:11 39.57117 -11.28241 38264 ft 472 kts 28°
2026-04-16 08:12 39.62727 -11.23849 38272 ft 472 kts 28°
2026-04-16 08:12 39.68367 -11.19424 38268 ft 472 kts 28°
2026-04-16 08:13 39.73962 -11.15027 38270 ft 472 kts 28°
2026-04-16 08:13 39.79589 -11.10596 38264 ft 472 kts 28°
2026-04-16 08:14 39.85221 -11.06152 38266 ft 472 kts 28°
2026-04-16 08:14 39.90821 -11.01725 38263 ft 472 kts 28°
2026-04-16 08:15 39.96451 -10.97266 38264 ft 472 kts 28°
2026-04-16 08:15 40.02031 -10.92837 38269 ft 472 kts 28°
2026-04-16 08:16 40.07660 -10.88361 38265 ft 472 kts 28°
2026-04-16 08:16 40.13280 -10.83884 38264 ft 472 kts 28°
2026-04-16 08:17 40.18861 -10.79428 38265 ft 472 kts 28°
2026-04-16 08:17 40.24462 -10.74949 38266 ft 472 kts 28°
2026-04-16 08:19 40.46876 -10.56933 38266 ft 472 kts 27°
2026-04-16 08:20 40.52483 -10.52403 38265 ft 472 kts 27°
2026-04-16 08:20 40.58052 -10.47896 38263 ft 472 kts 27°
2026-04-16 08:21 40.63647 -10.43358 38267 ft 472 kts 27°
2026-04-16 08:21 40.69246 -10.38809 38264 ft 472 kts 27°
2026-04-16 08:22 40.74838 -10.34255 38263 ft 472 kts 27°
2026-04-16 08:22 40.80387 -10.29728 38265 ft 472 kts 27°
2026-04-16 08:23 40.85968 -10.25165 38263 ft 471 kts 27°
2026-04-16 08:23 40.91540 -10.20601 38262 ft 471 kts 27°
2026-04-16 08:24 40.97106 -10.16033 38265 ft 471 kts 27°
2026-04-16 08:24 41.02681 -10.11448 38262 ft 471 kts 27°
2026-04-16 08:25 41.08223 -10.06881 38261 ft 471 kts 27°
2026-04-16 08:25 41.13802 -10.02275 38262 ft 471 kts 27°
2026-04-16 08:26 41.19343 -9.97690 38261 ft 470 kts 27°
2026-04-16 08:26 41.24901 -9.93081 38261 ft 470 kts 27°
2026-04-16 08:27 41.30451 -9.88470 38264 ft 470 kts 27°
2026-04-16 08:27 41.35969 -9.83877 38260 ft 470 kts 27°
2026-04-16 08:28 41.41527 -9.79240 38261 ft 470 kts 27°
2026-04-16 08:28 41.47048 -9.74626 38260 ft 470 kts 27°
2026-04-16 08:29 41.52608 -9.69969 38263 ft 470 kts 27°
2026-04-16 08:29 41.58118 -9.65344 38260 ft 470 kts 27°
2026-04-16 08:30 41.63665 -9.60679 38247 ft 470 kts 27°
2026-04-16 08:30 41.69176 -9.56034 38258 ft 470 kts 28°
2026-04-16 08:31 41.74731 -9.51344 38263 ft 470 kts 28°
2026-04-16 08:31 41.80261 -9.46663 38255 ft 470 kts 28°
2026-04-16 08:32 41.85753 -9.42007 38262 ft 470 kts 28°
2026-04-16 08:32 41.91276 -9.37272 38257 ft 471 kts 32°
2026-04-16 08:33 41.96335 -9.31671 38267 ft 474 kts 37°
2026-04-16 08:33 42.01277 -9.25736 38267 ft 475 kts 38°
2026-04-16 08:34 42.06147 -9.19775 38262 ft 475 kts 39°
2026-04-16 08:34 42.11047 -9.13774 38257 ft 475 kts 39°
2026-04-16 08:35 42.15945 -9.07783 38257 ft 475 kts 38°
2026-04-16 08:35 42.20817 -9.01821 38256 ft 475 kts 39°
2026-04-16 08:36 42.25718 -8.95811 38256 ft 474 kts 39°
2026-04-16 08:36 42.30581 -8.89834 38250 ft 474 kts 39°
2026-04-16 08:37 42.35464 -8.83818 38243 ft 474 kts 39°
2026-04-16 08:37 42.40323 -8.77819 38245 ft 474 kts 39°
2026-04-16 08:38 42.45174 -8.71816 38240 ft 474 kts 39°
2026-04-16 08:38 42.50048 -8.65771 38245 ft 474 kts 39°
2026-04-16 08:39 42.54934 -8.59699 38238 ft 474 kts 39°
2026-04-16 08:39 42.59770 -8.53675 38234 ft 474 kts 39°
2026-04-16 08:40 42.64635 -8.47603 38239 ft 474 kts 39°
2026-04-16 08:40 42.69497 -8.41519 38236 ft 474 kts 39°
2026-04-16 08:41 42.74329 -8.35460 38235 ft 474 kts 39°
2026-04-16 08:41 42.79183 -8.29359 38232 ft 474 kts 39°
2026-04-16 08:42 42.84038 -8.23244 38231 ft 474 kts 40°
2026-04-16 08:42 42.88859 -8.17158 38231 ft 474 kts 40°
2026-04-16 08:43 42.93715 -8.11015 38228 ft 474 kts 40°
2026-04-16 08:43 42.98551 -8.04883 38232 ft 474 kts 40°
2026-04-16 08:44 43.03353 -7.98780 38230 ft 474 kts 40°
2026-04-16 08:44 43.08199 -7.92608 38231 ft 474 kts 40°
2026-04-16 08:45 43.13009 -7.86467 38229 ft 474 kts 40°
2026-04-16 08:45 43.17840 -7.80285 38236 ft 474 kts 40°
2026-04-16 08:46 43.22638 -7.74133 38231 ft 475 kts 40°
2026-04-16 08:46 43.27459 -7.67936 38229 ft 475 kts 41°
2026-04-16 08:47 43.32291 -7.61711 38234 ft 475 kts 41°
2026-04-16 08:47 43.37080 -7.55527 38231 ft 475 kts 41°
2026-04-16 08:48 43.41903 -7.49286 38234 ft 474 kts 41°
2026-04-16 08:48 43.45902 -7.44099 38237 ft 475 kts 41°
2026-04-16 08:49 43.50717 -7.37841 38229 ft 475 kts 41°
2026-04-16 08:49 43.55494 -7.31619 38234 ft 475 kts 41°
2026-04-16 08:50 43.60305 -7.25338 38238 ft 475 kts 41°
2026-04-16 08:50 43.65088 -7.19079 38233 ft 475 kts 42°
2026-04-16 08:51 43.69904 -7.12762 38233 ft 476 kts 42°
2026-04-16 08:51 43.74688 -7.06472 38240 ft 476 kts 42°
2026-04-16 08:52 43.79466 -7.00175 38242 ft 476 kts 42°
2026-04-16 08:52 43.84272 -6.93827 38247 ft 476 kts 42°
2026-04-16 08:53 43.89075 -6.87469 38246 ft 476 kts 42°
2026-04-16 08:53 43.93847 -6.81136 38247 ft 476 kts 43°
2026-04-16 08:54 43.98615 -6.74794 38251 ft 477 kts 43°
2026-04-16 08:54 44.03425 -6.68381 38250 ft 477 kts 43°
2026-04-16 08:55 44.08189 -6.62014 38246 ft 477 kts 43°
2026-04-16 08:55 44.12978 -6.55599 38249 ft 477 kts 43°
2026-04-16 08:56 44.17727 -6.49221 38252 ft 477 kts 43°
2026-04-16 08:56 44.22513 -6.42781 38253 ft 477 kts 43°
2026-04-16 08:57 44.27288 -6.36337 38249 ft 477 kts 43°
2026-04-16 08:57 44.32061 -6.29882 38251 ft 477 kts 43°
2026-04-16 08:58 44.36827 -6.23422 38252 ft 477 kts 43°
2026-04-16 08:58 44.41578 -6.16966 38254 ft 477 kts 43°
2026-04-16 08:59 44.46316 -6.10513 38253 ft 477 kts 43°
2026-04-16 08:59 44.51081 -6.04005 38252 ft 477 kts 43°
2026-04-16 09:00 44.55812 -5.97531 38252 ft 477 kts 43°
2026-04-16 09:00 44.60569 -5.91004 38254 ft 477 kts 43°
2026-04-16 09:01 44.67676 -5.81236 38253 ft 477 kts 43°
2026-04-16 09:02 44.72413 -5.74756 38252 ft 477 kts 43°
2026-04-16 09:02 44.77180 -5.68229 38252 ft 477 kts 43°
2026-04-16 09:03 44.81913 -5.61729 38253 ft 477 kts 43°
2026-04-16 09:03 44.86668 -5.55180 38254 ft 477 kts 43°
2026-04-16 09:04 44.91420 -5.48617 38257 ft 477 kts 43°
2026-04-16 09:04 44.96163 -5.42051 38254 ft 477 kts 43°
2026-04-16 09:05 45.00869 -5.35521 38251 ft 477 kts 43°
2026-04-16 09:05 45.05608 -5.28927 38253 ft 477 kts 43°
2026-04-16 09:06 45.10349 -5.22316 38251 ft 477 kts 44°
2026-04-16 09:06 45.15055 -5.15738 38254 ft 477 kts 44°
2026-04-16 09:07 45.19759 -5.09147 38252 ft 477 kts 43°
2026-04-16 09:07 45.24484 -5.02508 38253 ft 477 kts 43°
2026-04-16 09:08 45.29200 -4.95866 38259 ft 477 kts 43°
2026-04-16 09:08 45.33885 -4.89252 38259 ft 477 kts 43°
2026-04-16 09:09 45.38573 -4.82617 38258 ft 477 kts 43°
2026-04-16 09:09 45.43283 -4.75935 38259 ft 477 kts 43°
2026-04-16 09:10 45.47966 -4.69273 38261 ft 477 kts 43°
2026-04-16 09:10 45.52661 -4.62579 38257 ft 477 kts 43°
2026-04-16 09:11 45.57331 -4.55904 38259 ft 477 kts 43°
2026-04-16 09:11 45.62020 -4.49184 38260 ft 477 kts 43°
2026-04-16 09:12 45.66674 -4.42498 38258 ft 477 kts 43°
2026-04-16 09:12 45.71348 -4.35766 38260 ft 477 kts 43°
2026-04-16 09:13 45.76037 -4.28995 38263 ft 477 kts 43°
2026-04-16 09:13 45.80685 -4.22267 38261 ft 476 kts 43°
2026-04-16 09:14 45.85356 -4.15489 38261 ft 476 kts 43°
2026-04-16 09:14 45.90010 -4.08718 38267 ft 476 kts 43°
2026-04-16 09:15 45.94634 -4.01974 38261 ft 476 kts 43°
2026-04-16 09:15 45.99287 -3.95170 38263 ft 476 kts 43°
2026-04-16 09:16 46.03935 -3.88356 38266 ft 476 kts 43°
2026-04-16 09:16 46.08553 -3.81568 38258 ft 476 kts 43°
2026-04-16 09:17 46.13191 -3.74734 38260 ft 476 kts 43°
2026-04-16 09:17 46.17820 -3.67896 38262 ft 476 kts 43°
2026-04-16 09:18 46.22424 -3.61076 38264 ft 476 kts 43°
2026-04-16 09:18 46.27042 -3.54220 38265 ft 476 kts 43°
2026-04-16 09:19 46.31632 -3.47386 38264 ft 476 kts 43°
2026-04-16 09:19 46.36253 -3.40488 38263 ft 475 kts 43°
2026-04-16 09:20 46.40864 -3.33589 38265 ft 475 kts 43°
2026-04-16 09:20 46.45435 -3.26731 38265 ft 475 kts 43°
2026-04-16 09:21 46.50044 -3.19799 38265 ft 475 kts 43°
2026-04-16 09:21 46.54615 -3.12905 38266 ft 475 kts 44°
2026-04-16 09:22 46.58573 -3.05176 38263 ft 478 kts 56°
2026-04-16 09:22 46.62025 -2.96878 38268 ft 479 kts 58°
2026-04-16 09:23 46.65349 -2.88522 38265 ft 479 kts 58°
2026-04-16 09:23 46.68677 -2.80117 38266 ft 479 kts 58°
2026-04-16 09:24 46.72005 -2.71735 38266 ft 479 kts 58°
2026-04-16 09:24 46.75357 -2.63296 38267 ft 479 kts 58°
2026-04-16 09:25 46.78683 -2.54901 38271 ft 479 kts 58°
2026-04-16 09:25 46.81996 -2.46513 38271 ft 479 kts 58°
2026-04-16 09:26 46.85331 -2.38040 38273 ft 478 kts 58°
2026-04-16 09:26 46.88733 -2.29725 38267 ft 478 kts 56°
2026-04-16 09:27 46.92226 -2.21499 38270 ft 478 kts 56°
2026-04-16 09:27 46.95741 -2.13214 38267 ft 477 kts 56°
2026-04-16 09:28 46.99228 -2.04926 38264 ft 477 kts 56°
2026-04-16 09:28 47.02615 -1.96604 38262 ft 477 kts 58°
2026-04-16 09:29 47.05881 -1.88106 38266 ft 477 kts 58°
2026-04-16 09:29 47.09103 -1.79633 38265 ft 477 kts 58°
2026-04-16 09:30 47.12345 -1.71127 38265 ft 477 kts 58°
2026-04-16 09:30 47.15600 -1.62601 38266 ft 477 kts 57°
2026-04-16 09:31 47.19062 -1.54386 38267 ft 475 kts 53°
2026-04-16 09:31 47.22741 -1.46316 38263 ft 475 kts 53°
2026-04-16 09:32 47.26428 -1.38226 38265 ft 475 kts 53°
2026-04-16 09:32 47.30077 -1.30103 38259 ft 475 kts 53°
2026-04-16 09:33 47.33707 -1.21945 38260 ft 476 kts 53°
2026-04-16 09:33 47.37334 -1.13759 38265 ft 476 kts 53°
2026-04-16 09:34 47.40930 -1.05621 38266 ft 476 kts 53°
2026-04-16 09:34 47.44548 -0.97414 38265 ft 476 kts 53°
2026-04-16 09:35 47.47550 -0.90585 38265 ft 476 kts 53°
2026-04-16 09:35 47.51154 -0.82366 38269 ft 477 kts 53°
2026-04-16 09:36 47.54757 -0.74122 38284 ft 477 kts 53°
2026-04-16 09:36 47.58359 -0.65855 38284 ft 477 kts 53°
2026-04-16 09:37 47.61955 -0.57579 38296 ft 477 kts 53°
2026-04-16 09:37 47.65539 -0.49305 38284 ft 477 kts 53°
2026-04-16 09:38 47.69124 -0.41003 38288 ft 477 kts 53°
2026-04-16 09:38 47.72676 -0.32752 38288 ft 477 kts 53°
2026-04-16 09:39 47.76248 -0.24430 38290 ft 478 kts 53°
2026-04-16 09:39 47.79817 -0.16091 38282 ft 478 kts 53°
2026-04-16 09:40 47.83378 -0.07743 38287 ft 477 kts 53°
2026-04-16 09:40 47.86931 0.00612 38292 ft 477 kts 53°
2026-04-16 09:41 47.90457 0.08929 38293 ft 477 kts 53°
2026-04-16 09:41 47.94002 0.17316 38292 ft 477 kts 53°
2026-04-16 09:42 47.97532 0.25693 38293 ft 477 kts 53°
2026-04-16 09:42 48.01060 0.34091 38291 ft 477 kts 53°
2026-04-16 09:43 48.04577 0.42491 38288 ft 477 kts 53°
2026-04-16 09:43 48.08073 0.50864 38286 ft 477 kts 53°
2026-04-16 09:44 48.11608 0.59272 38280 ft 475 kts 50°
2026-04-16 09:44 48.15516 0.67221 38276 ft 474 kts 48°
2026-04-16 09:45 48.19500 0.75078 38274 ft 474 kts 47°
2026-04-16 09:45 48.23505 0.82934 38269 ft 474 kts 47°
2026-04-16 09:46 48.27479 0.90766 38268 ft 474 kts 47°
2026-04-16 09:46 48.31468 0.98666 38266 ft 474 kts 47°
2026-04-16 09:47 48.35446 1.06573 38264 ft 475 kts 47°
2026-04-16 09:47 48.39430 1.14516 38259 ft 475 kts 47°
2026-04-16 09:48 48.43410 1.22472 38258 ft 475 kts 47°
2026-04-16 09:48 48.47357 1.30387 38257 ft 475 kts 47°
2026-04-16 09:49 48.51323 1.38360 38252 ft 475 kts 47°
2026-04-16 09:49 48.55286 1.46353 38251 ft 476 kts 47°
2026-04-16 09:50 48.59252 1.54377 38247 ft 476 kts 47°
2026-04-16 09:50 48.63166 1.62456 38250 ft 479 kts 53°
2026-04-16 09:51 48.66071 1.71621 38259 ft 486 kts 64°
2026-04-16 09:51 48.68459 1.81135 38263 ft 487 kts 66°
2026-04-16 09:52 48.70755 1.90800 38266 ft 487 kts 66°
2026-04-16 09:52 48.73037 2.00416 38268 ft 487 kts 66°
2026-04-16 09:53 48.75334 2.10089 38264 ft 488 kts 67°
2026-04-16 09:53 48.77277 2.19942 38266 ft 490 kts 71°
2026-04-16 09:54 48.79017 2.29960 38266 ft 490 kts 71°
2026-04-16 09:54 48.80741 2.39909 38267 ft 490 kts 71°
2026-04-16 09:55 48.82507 2.49925 38271 ft 489 kts 71°
2026-04-16 09:55 48.84264 2.59848 38268 ft 489 kts 71°
2026-04-16 09:56 48.86028 2.69840 38273 ft 489 kts 71°
2026-04-16 09:56 48.87781 2.79838 38262 ft 489 kts 71°
2026-04-16 09:57 48.89510 2.89768 38268 ft 489 kts 71°
2026-04-16 09:57 48.91248 2.99799 38269 ft 489 kts 71°
2026-04-16 09:58 48.92967 3.09785 38267 ft 489 kts 71°
2026-04-16 09:58 48.94683 3.19807 38264 ft 488 kts 71°
2026-04-16 09:59 48.96381 3.29780 38273 ft 488 kts 71°
2026-04-16 09:59 48.98078 3.39806 38268 ft 488 kts 71°
2026-04-16 10:00 48.99756 3.49778 38268 ft 488 kts 71°
2026-04-16 10:00 49.01437 3.59821 38264 ft 487 kts 71°
2026-04-16 10:01 49.03924 3.74798 38263 ft 487 kts 71°
2026-04-16 10:01 49.05566 3.84759 38263 ft 486 kts 71°
2026-04-16 10:02 49.07212 3.94798 38267 ft 486 kts 71°
2026-04-16 10:02 49.08834 4.04752 38264 ft 485 kts 71°
2026-04-16 10:03 49.10457 4.14773 38253 ft 485 kts 71°
2026-04-16 10:03 49.12058 4.24708 38268 ft 485 kts 72°
2026-04-16 10:04 49.13709 4.34692 38261 ft 482 kts 67°
2026-04-16 10:04 49.16072 4.44235 38262 ft 478 kts 63°
2026-04-16 10:05 49.18589 4.53597 38256 ft 477 kts 62°
2026-04-16 10:05 49.21144 4.62964 38258 ft 477 kts 62°
2026-04-16 10:06 49.23684 4.72344 38248 ft 477 kts 63°
2026-04-16 10:06 49.26362 4.81531 38250 ft 474 kts 59°
2026-04-16 10:07 49.29195 4.90664 38244 ft 473 kts 59°
2026-04-16 10:07 49.32017 4.99736 38249 ft 473 kts 59°
2026-04-16 10:08 49.34847 5.08855 37927 ft 473 kts 60°
2026-04-16 10:08 49.36261 5.13420 37666 ft 474 kts 60°
2026-04-16 10:08 49.37676 5.18000 37393 ft 474 kts 60°
2026-04-16 10:09 49.39091 5.22586 37121 ft 475 kts 60°
2026-04-16 10:09 49.40508 5.27187 36869 ft 475 kts 60°
2026-04-16 10:09 49.41907 5.31739 36610 ft 475 kts 60°
2026-04-16 10:09 49.43327 5.36366 36355 ft 476 kts 60°
2026-04-16 10:10 49.44737 5.40972 36103 ft 476 kts 60°
2026-04-16 10:10 49.46145 5.45581 35853 ft 477 kts 60°
2026-04-16 10:10 49.47555 5.50202 35603 ft 477 kts 60°
2026-04-16 10:10 49.48947 5.54775 35348 ft 477 kts 60°
2026-04-16 10:11 49.50360 5.59422 35129 ft 478 kts 60°
2026-04-16 10:11 49.51767 5.64059 34882 ft 478 kts 60°
2026-04-16 10:11 49.53174 5.68707 34638 ft 478 kts 60°
2026-04-16 10:11 49.54561 5.73296 34407 ft 478 kts 60°
2026-04-16 10:12 49.55965 5.77952 34149 ft 479 kts 60°
2026-04-16 10:12 49.57378 5.82643 33550 ft 480 kts 60°
2026-04-16 10:12 49.58764 5.87251 32822 ft 481 kts 61°
2026-04-16 10:12 49.60178 5.91956 32093 ft 482 kts 61°
2026-04-16 10:13 49.61588 5.96656 31386 ft 483 kts 62°
2026-04-16 10:13 49.63004 6.01389 30987 ft 486 kts 62°
2026-04-16 10:13 49.64406 6.06089 30749 ft 488 kts 62°
2026-04-16 10:13 49.65829 6.10870 30511 ft 489 kts 62°
2026-04-16 10:14 49.67251 6.15658 30259 ft 490 kts 62°
2026-04-16 10:14 49.68672 6.20452 29971 ft 491 kts 62°
2026-04-16 10:14 49.70092 6.25255 29694 ft 491 kts 62°
2026-04-16 10:14 49.71516 6.30078 29411 ft 492 kts 62°
2026-04-16 10:15 49.72917 6.34834 29144 ft 492 kts 63°
2026-04-16 10:15 49.74338 6.39668 28862 ft 492 kts 63°
2026-04-16 10:15 49.75752 6.44489 28595 ft 492 kts 63°
2026-04-16 10:15 49.77166 6.49316 28315 ft 493 kts 63°
2026-04-16 10:16 49.78582 6.54160 28045 ft 493 kts 63°
2026-04-16 10:16 49.79978 6.58949 27783 ft 493 kts 63°
2026-04-16 10:16 49.81388 6.63792 27529 ft 493 kts 63°
2026-04-16 10:16 49.82798 6.68644 27273 ft 493 kts 63°
2026-04-16 10:17 49.84205 6.73498 26912 ft 489 kts 63°
2026-04-16 10:17 49.85587 6.78280 26318 ft 484 kts 63°
2026-04-16 10:17 49.86959 6.83032 25617 ft 481 kts 63°
2026-04-16 10:17 49.88327 6.87778 24887 ft 480 kts 63°
2026-04-16 10:18 49.89685 6.92499 24163 ft 478 kts 63°
2026-04-16 10:18 49.91017 6.97137 23395 ft 475 kts 64°
2026-04-16 10:18 49.92359 7.01822 22657 ft 471 kts 64°
2026-04-16 10:18 49.93684 7.06457 21944 ft 465 kts 64°
2026-04-16 10:19 49.94992 7.11042 21300 ft 459 kts 64°
2026-04-16 10:19 49.96266 7.15518 20961 ft 446 kts 64°
2026-04-16 10:19 49.97494 7.19837 20325 ft 441 kts 64°
2026-04-16 10:19 49.98733 7.24202 19601 ft 439 kts 64°
2026-04-16 10:20 49.99967 7.28555 18873 ft 437 kts 65°
2026-04-16 10:20 50.01009 7.32921 18336 ft 428 kts 74°
2026-04-16 10:20 50.01495 7.37462 18074 ft 427 kts 86°
2026-04-16 10:20 50.01515 7.42084 17800 ft 427 kts 91°
2026-04-16 10:21 50.01438 7.45142 17625 ft 425 kts 92°
2026-04-16 10:21 50.01222 7.51223 17274 ft 423 kts 93°
2026-04-16 10:21 50.01040 7.55763 16903 ft 417 kts 94°
2026-04-16 10:21 50.00914 7.58792 16469 ft 414 kts 94°
2026-04-16 10:22 50.00728 7.63193 15776 ft 411 kts 94°
2026-04-16 10:22 50.00538 7.67623 15078 ft 408 kts 94°
2026-04-16 10:22 50.00347 7.72023 14394 ft 406 kts 94°
2026-04-16 10:22 50.00155 7.76393 13683 ft 403 kts 94°
2026-04-16 10:23 49.99964 7.80717 13005 ft 397 kts 94°
2026-04-16 10:23 49.99773 7.84974 12345 ft 392 kts 94°
2026-04-16 10:23 49.99584 7.89188 11704 ft 387 kts 94°
2026-04-16 10:23 49.99476 7.93279 11325 ft 379 kts 87°
2026-04-16 10:24 49.99935 7.97254 11237 ft 366 kts 72°
2026-04-16 10:24 50.00747 8.00886 11221 ft 345 kts 69°
2026-04-16 10:24 50.01577 8.04269 11226 ft 326 kts 68°
2026-04-16 10:24 50.02371 8.07476 11222 ft 309 kts 68°
2026-04-16 10:25 50.03130 8.10550 11225 ft 303 kts 68°
2026-04-16 10:25 50.03881 8.13610 11234 ft 303 kts 69°
2026-04-16 10:25 50.04622 8.16640 11223 ft 302 kts 69°
2026-04-16 10:25 50.05360 8.19667 10789 ft 299 kts 69°
2026-04-16 10:26 50.06098 8.22704 10148 ft 299 kts 69°
2026-04-16 10:26 50.06834 8.25742 9490 ft 298 kts 69°
2026-04-16 10:26 50.07556 8.28725 9220 ft 292 kts 69°
2026-04-16 10:26 50.08268 8.31669 9081 ft 293 kts 69°
2026-04-16 10:27 50.08985 8.34643 8928 ft 292 kts 69°
2026-04-16 10:27 50.09697 8.37603 8779 ft 291 kts 69°
2026-04-16 10:27 50.10408 8.40560 8628 ft 290 kts 69°
2026-04-16 10:27 50.11116 8.43510 8476 ft 290 kts 69°
2026-04-16 10:28 50.11814 8.46419 8319 ft 289 kts 69°
2026-04-16 10:28 50.12519 8.49359 8188 ft 288 kts 69°
2026-04-16 10:28 50.13222 8.52297 8039 ft 288 kts 69°
2026-04-16 10:28 50.13913 8.55190 7782 ft 288 kts 69°
2026-04-16 10:29 50.14608 8.58103 7501 ft 285 kts 69°
2026-04-16 10:29 50.15296 8.60992 7340 ft 284 kts 69°
2026-04-16 10:29 50.15983 8.63885 7197 ft 284 kts 69°
2026-04-16 10:29 50.16669 8.66771 7056 ft 283 kts 69°
2026-04-16 10:30 50.17346 8.69621 6901 ft 283 kts 70°
2026-04-16 10:30 50.18031 8.72504 6753 ft 282 kts 69°
2026-04-16 10:30 50.18712 8.75378 6595 ft 281 kts 70°
2026-04-16 10:30 50.19389 8.78244 6455 ft 280 kts 70°
2026-04-16 10:31 50.20055 8.81066 6246 ft 280 kts 70°
2026-04-16 10:31 50.20727 8.83914 6030 ft 278 kts 70°
2026-04-16 10:31 50.21392 8.86745 5992 ft 276 kts 70°
2026-04-16 10:31 50.22059 8.89571 5806 ft 277 kts 69°
2026-04-16 10:32 50.22716 8.92369 5465 ft 275 kts 70°
2026-04-16 10:32 50.23366 8.95168 5182 ft 272 kts 72°
2026-04-16 10:32 50.23573 8.98059 5002 ft 268 kts 99°
2026-04-16 10:32 50.22886 9.00715 4988 ft 265 kts 128°
2026-04-16 10:33 50.21490 9.02537 4973 ft 258 kts 155°
2026-04-16 10:33 50.19816 9.03070 4968 ft 239 kts 186°
2026-04-16 10:33 50.18318 9.02254 4977 ft 230 kts 214°
2026-04-16 10:33 50.17065 9.00680 4985 ft 232 kts 222°
2026-04-16 10:34 50.15876 8.98958 4986 ft 234 kts 223°
2026-04-16 10:34 50.14815 8.97079 4969 ft 230 kts 245°
2026-04-16 10:34 50.14329 8.94810 5016 ft 213 kts 255°
2026-04-16 10:34 50.13922 8.92605 4992 ft 211 kts 251°
2026-04-16 10:35 50.13431 8.90440 4988 ft 212 kts 249°
2026-04-16 10:35 50.12923 8.88307 4995 ft 212 kts 249°
2026-04-16 10:35 50.12401 8.86148 4888 ft 211 kts 249°
2026-04-16 10:35 50.11892 8.84035 4645 ft 205 kts 249°
2026-04-16 10:36 50.11398 8.81949 4296 ft 205 kts 249°
2026-04-16 10:36 50.10910 8.79898 3975 ft 204 kts 249°
2026-04-16 10:36 50.10418 8.77832 3682 ft 201 kts 249°
2026-04-16 10:36 50.09935 8.75806 3423 ft 197 kts 249°
2026-04-16 10:37 50.09462 8.73821 3148 ft 193 kts 249°
2026-04-16 10:37 50.09007 8.71914 2907 ft 185 kts 250°
2026-04-16 10:37 50.08571 8.70082 2655 ft 176 kts 249°
2026-04-16 10:37 50.08145 8.68294 2415 ft 175 kts 249°
2026-04-16 10:38 50.07735 8.66577 2191 ft 162 kts 249°
2026-04-16 10:38 50.07359 8.65002 1936 ft 149 kts 249°
2026-04-16 10:38 50.07013 8.63558 1708 ft 139 kts 249°
2026-04-16 10:38 50.06683 8.62182 1517 ft 134 kts 249°
2026-04-16 10:39 50.06355 8.60817 1379 ft 135 kts 249°
2026-04-16 10:39 50.06031 8.59450 1185 ft 134 kts 249°
2026-04-16 10:39 50.05710 8.58089 1012 ft 134 kts 248°
2026-04-16 10:39 50.05379 8.56750 838 ft 133 kts 249°
2026-04-16 10:40 50.05069 8.55385 642 ft 133 kts 249°
2026-04-16 10:40 50.04745 8.54042 486 ft 132 kts 248°
2026-04-16 10:40 50.04425 8.52717 365 ft 126 kts 248°
2026-04-16 10:40 50.04159 8.51607 335 ft 78 kts 249°
2026-04-16 10:41 50.04021 8.51097 329 ft 43 kts 235°
2026-04-16 10:41 50.03873 8.50874 326 ft 18 kts 219°
2026-04-16 10:41 50.03790 8.50867 333 ft 9 kts 135°
2026-04-16 10:41 50.03764 8.50931 335 ft 6 kts 117°
2026-04-16 10:42 50.03741 8.51001 339 ft 8 kts 117°
2026-04-16 10:42 50.03715 8.51083 349 ft 11 kts 116°
2026-04-16 10:42 50.03666 8.51242 351 ft 21 kts 116°
2026-04-16 10:42 50.03604 8.51439 360 ft 19 kts 116°
2026-04-16 10:43 50.03549 8.51616 364 ft 18 kts 116°
2026-04-16 10:43 50.03514 8.51795 359 ft 17 kts 81°
2026-04-16 10:43 50.03523 8.51993 350 ft 21 kts 85°
2026-04-16 10:43 50.03543 8.52218 345 ft 21 kts 81°
2026-04-16 10:44 50.03582 8.52438 350 ft 21 kts 69°
2026-04-16 10:44 50.03604 8.52655 344 ft 20 kts 76°
2026-04-16 10:44 50.03621 8.52844 352 ft 17 kts 126°
2026-04-16 10:44 50.03593 8.53005 352 ft 16 kts 69°
2026-04-16 10:45 50.03633 8.53169 344 ft 16 kts 69°
2026-04-16 10:45 50.03672 8.53327 349 ft 15 kts 72°
2026-04-16 10:45 50.03705 8.53478 345 ft 13 kts 75°
2026-04-16 10:45 50.03682 8.53565 352 ft 6 kts 140°
2026-04-16 10:46 50.03663 8.53622 345 ft 6 kts 96°
2026-04-16 10:46 50.03668 8.53670 352 ft 3 kts 83°
2026-04-16 10:46 50.03664 8.53682 349 ft 0 kts 137°
2026-04-16 10:46 50.03663 8.53682 349 ft 1 kts 141°
2026-04-16 10:47 50.03646 8.53699 348 ft 4 kts 153°
2026-04-16 10:47 50.03617 8.53716 353 ft 4 kts 158°
2026-04-16 10:47 50.03605 8.53723 346 ft 1 kts 159°
2026-04-16 10:47 50.03601 8.53726 347 ft 0 kts 159°
2026-04-16 10:49 50.03601 8.53725 347 ft 0 kts 159°